GFSSW_850_dewp_363.txt.gz
Dewpoint
-11 -10 -10 -10 -9 -9 -7 -6 -5 -6 -6 -7 -7 -6 -6 -5 -5 -4 3 -1 -2 -4 -5 -3 -6 -3 -5 -5 -5 -4 -4 -5 -6 -8 -10 -12 -11 -12 -7 -4 -5 -3 -3 -3 -1
-9 -9 -8 -9 -8 -6 -6 -5 -6 -7 -7 -7 -6 -5 -3 -3 -3 -3 -4 -5 -7 -6 -4 -2 -5 -8 -8 -8 -6 -5 -6 -7 -10 -11 -10 -11 -11 -11 -8 -7 -7 -3 -1 -2 -4
-5 -6 -6 -6 -6 -6 -7 -8 -8 -8 -7 -5 -3 -3 -3 -3 2 -4 -7 -13 -11 -7 -3 -5 -7 -6 -7 -9 -8 -6 -5 -10 -10 -10 -10 -9 -10 -11 -10 -9 -11 -10 -10 -2 -1
-6 -5 -6 -6 -6 -7 -6 -7 -7 -7 -5 -3 -3 -2 -2 -2 -1 -5 -6 -7 -12 -13 -7 -7 -11 -9 -9 -8 -10 -7 -9 -10 -10 -10 -11 -9 -8 -9 -10 -10 -9 -10 -10 -2 -1
-6 -7 -7 -7 -6 -5 -5 -4 -3 -3 -3 -3 -2 -2 3 3 1 -3 -2 -3 -5 -7 -9 -10 -10 -9 -7 -9 -9 -9 -10 -10 -11 -12 -11 -9 -8 -9 -10 -10 -10 -10 -8 -7 1
-6 -6 -4 -3 -3 -3 -2 -2 -2 -2 -3 -3 -2 -1 5 4 -2 -3 -2 1 2 -1 -5 -7 -8 -8 -9 -10 -9 -10 -11 -10 -11 -11 -10 -10 -12 -12 -11 -10 -10 -9 -9 -5 -3
-3 -4 -3 -2 -2 -2 -2 -3 -4 -4 -5 -5 -3 2 6 1 -2 -3 -3 -3 -1 -5 -8 -10 -10 -12 -11 -10 -11 -11 -9 -10 -10 -11 -11 -11 -8 -9 -10 -10 -11 -11 -7 -4 -1
-1 -2 -1 -1 -1 -2 -2 -3 -4 -3 -4 -4 -4 4 4 -0 -2 -1 -4 -6 -9 -10 -10 -10 -9 -9 -10 -9 -8 -8 -8 -5 -7 -8 -9 -9 -5 -6 -7 -8 -6 -5 -5 -4 -3
1 -0 -0 -1 -1 -1 -2 -3 -3 -1 -1 -2 1 4 1 -2 -4 -5 -6 -8 -10 -12 -11 -11 -9 -9 -8 -6 -5 -5 -3 -3 -3 -6 -6 -7 -4 -7 -8 -8 -8 -8 -8 -7 -7
2 1 0 -1 -1 -1 -0 -0 0 1 2 2 3 1 -1 -2 -7 -10 -9 -9 -8 -11 -11 -10 -9 -7 -6 -4 -0 -1 -1 -2 -2 -5 -6 -5 -5 -8 -9 -9 -9 -8 -8 -7 -7
2 2 1 0 1 2 2 4 2 0 3 1 -1 -2 -3 -2 -0 -1 -9 -7 -2 -5 -3 -7 -4 -2 -3 -4 -3 -3 -2 -2 -2 -4 -6 -6 -5 -7 -9 -9 -9 -8 -8 -8 -7
3 4 2 2 3 2 3 4 4 3 0 1 0 0 1 1 1 0 -0 -0 -2 -1 -3 -2 -1 -5 -5 -5 -4 -3 -2 -1 -2 -4 -5 -5 -6 -9 -10 -11 -10 -10 -8 -8 -8
5 4 4 3 3 4 4 4 3 3 2 0 0 1 1 1 1 1 0 0 -1 -1 -2 -1 -2 -4 -3 -3 -2 -2 -0 -0 -0 -5 -6 -5 -4 -7 -11 -12 -12 -11 -10 -9 -8
3 3 3 3 4 4 4 3 3 3 4 -1 0 1 -1 1 -0 0 1 -2 -1 0 -1 -1 -3 -2 -2 -1 -2 1 -2 -3 -2 -2 0 -5 -2 -5 -9 -11 -12 -12 -11 -10 -9
-2 -0 2 2 3 4 4 3 3 3 5 -3 -1 -5 -8 -4 -7 -5 -5 -5 -4 -3 -3 -1 -3 -3 0 -1 -3 -0 -4 -4 -3 0 0 -1 -1 -5 -8 -9 -11 -12 -11 -11 -10
-3 -3 -1 2 4 3 3 3 3 5 5 -1 -5 -6 -6 -8 -7 -7 -9 -9 -8 -6 -5 -5 -6 -6 -5 -5 -5 -4 -4 -3 -2 -1 4 -0 -1 -5 -8 -9 -11 -13 -12 -11 -11
-9 -8 -7 -1 3 4 3 4 4 5 -6 -3 -2 -3 -3 -3 -1 -4 -5 -6 -2 -2 -1 -2 -3 -6 -7 -4 -5 -3 -1 4 4 5 2 -4 0 -6 -10 -11 -11 -12 -12 -12 -11
-17 -16 -14 -8 2 3 4 3 4 -1 -3 -5 -3 -1 0 -3 -1 -0 0 1 -2 -2 2 3 3 -2 -8 -5 -3 -2 1 4 4 5 0 -3 3 -8 -10 -11 -11 -12 -12 -12 -12
-33 -20 -4 3 3 3 3 4 3 -1 -2 2 2 1 1 1 0 -0 -0 2 1 -1 3 1 2 -6 -6 -8 -5 -3 1 -1 3 2 5 -1 -9 -10 -11 -12 -12 -12 -12 -12 -12
-23 -0 1 2 3 3 3 3 -0 0 0 -1 1 2 3 0 -0 0 4 2 1 -2 -2 1 4 -1 -8 -8 -5 -1 -3 2 3 5 5 2 -4 -7 -10 -11 -12 -13 -13 -13 -13
-7 -1 1 2 1 1 2 -1 1 -2 -5 -2 1 -1 -1 -1 -3 -2 0 -2 -1 1 -0 0 4 2 -6 -3 -1 -2 2 3 3 4 5 2 -4 -10 -11 -12 -12 -13 -13 -13 -13
-5 -4 -2 -3 -1 -0 2 -3 -7 -6 -10 -12 -7 -5 -4 -4 -5 -5 -3 -2 -3 -2 2 2 4 4 0 -4 -3 -1 1 2 4 4 1 2 -8 -12 -13 -13 -13 -13 -13 -13 -14
-4 -3 -2 -2 -1 -3 -7 -12 -11 -10 -9 -7 -7 -7 -7 -7 -4 -7 -6 -7 -7 -5 -3 -1 1 4 1 -1 -2 -2 -7 -6 -1 1 4 4 -10 -12 -13 -13 -13 -13 -14 -14 -15
-3 -1 -2 -5 -7 -7 -8 -7 -10 -12 -10 -9 -7 -11 -8 -8 -8 -6 -7 -7 -11 -10 -6 -6 -10 -10 -2 -7 -7 -9 -11 -9 -6 3 -2 -9 -12 -13 -13 -13 -14 -14 -15 -16 -15
-3 -4 -6 -6 -9 -9 -11 -11 -11 -11 -13 -10 -10 -10 -9 -7 -10 -10 -12 -14 -15 -15 -9 -9 -11 -11 -11 -12 -12 -13 -13 -13 -12 -11 -6 -12 -12 -13 -13 -14 -14 -14 -16 -17 -17
-4 -4 -8 -12 -12 -10 -12 -11 -12 -13 -13 -10 -10 -10 -10 -10 -10 -10 -10 -11 -15 -15 -11 -9 -10 -11 -11 -11 -13 -14 -13 -13 -14 -13 -13 -14 -15 -15 -15 -15 -15 -16 -16 -17 -18
-6 -5 -11 -13 -11 -12 -13 -14 -14 -14 -14 -12 -11 -10 -8 -10 -11 -11 -10 -11 -11 -16 -13 -10 -10 -8 -8 -10 -10 -13 -14 -14 -15 -15 -13 -13 -14 -15 -16 -16 -15 -16 -17 -17 -18

GFSSW_850_dewp_369.txt.gz
Dewpoint
2 1 1 -1 -2 -1 -1 -0 -0 0 -2 -5 -4 -4 -4 -5 -6 -4 -4 -15 -11 -7 -0 -0 -3 -5 5 4 3 -1 -1 -2 -2 -2 -4 -6 -6 -8 -10 -12 -8 -5 -6 -4 0
6 5 5 4 1 -0 0 1 1 0 -1 -2 -2 -2 -2 -3 -2 -4 -6 -5 -4 -2 2 1 -0 0 6 4 1 -0 0 -3 -6 -6 -6 -6 -6 -8 -8 -6 -6 -7 -3 -4 -4
7 7 6 6 5 4 2 1 2 1 -0 -2 -2 -1 -0 4 3 -4 -4 -7 -7 1 3 3 1 2 4 0 -1 -1 0 -4 -5 -6 -6 -6 -6 -8 -8 -8 -6 -6 -4 -4 -3
8 8 7 6 6 5 3 3 3 2 0 -2 -2 -0 1 5 3 -5 -4 -4 -3 -5 1 1 2 1 1 0 -3 -1 -4 -3 -4 -5 -5 -5 -7 -8 -8 -8 -9 -9 -9 -8 -4
8 8 7 7 6 5 4 3 2 1 -0 -1 -1 1 5 5 5 -3 -0 -0 1 1 -3 -4 1 -0 -1 -3 -3 -5 -5 -6 -6 -5 -5 -7 -8 -9 -9 -9 -8 -9 -6 0 2
8 8 7 6 6 5 3 2 -0 -2 -1 0 0 5 5 6 1 -1 1 -2 -1 2 -1 -3 -2 -2 -4 -4 -5 -6 -6 -6 -7 -8 -8 -8 -9 -10 -8 -9 -7 -7 -4 -1 0
8 7 7 6 4 2 1 -1 -3 -5 -3 -3 1 5 5 5 0 1 -3 1 3 3 2 -2 0 -4 -6 -8 -8 -7 -5 -6 -7 -10 -10 -10 -9 -7 -7 -8 -7 -6 -6 -4 -3
8 7 6 5 3 1 -1 -1 -4 -4 1 -0 2 4 5 2 2 2 1 2 2 4 5 5 3 -2 -7 -6 -8 -8 -7 -5 -7 -8 -9 -10 -6 -7 -8 -8 -7 -7 -7 -6 -5
7 6 5 3 2 -0 -2 -2 -3 -2 -0 1 2 4 4 1 -2 -2 -2 -2 -1 -0 1 -2 -4 -10 -8 -7 -6 -6 -4 -4 -5 -7 -7 -8 -6 -8 -8 -8 -7 -8 -7 -7 -6
6 5 4 2 -0 -3 -1 1 0 2 2 -0 3 3 0 -2 -1 -3 -3 -5 -4 -6 -9 -12 -11 -7 -5 -5 -1 -2 -4 -5 -4 -5 -6 -5 -6 -8 -8 -8 -8 -8 -8 -8 -7
5 4 2 -1 -4 -5 -0 2 2 1 1 1 -2 -1 -1 -2 -1 -1 -1 -1 -6 -7 -7 -9 -7 -6 -6 -6 -6 -4 -3 -2 -3 -5 -4 -4 -5 -8 -10 -9 -9 -9 -9 -9 -8
4 1 -4 -8 -10 -8 4 3 4 3 2 1 1 1 1 1 1 -0 0 -1 -8 -6 -6 -7 -5 -7 -6 -5 -4 -4 -2 -2 -3 -5 1 -1 -6 -10 -10 -10 -10 -10 -10 -9 -9
-4 -10 -13 -15 -14 3 3 3 2 3 2 0 0 1 1 1 1 0 0 0 -1 -2 -3 0 -2 -3 -4 -3 -2 -3 -2 -3 -2 -3 2 -0 -3 -5 -11 -11 -11 -10 -10 -10 -10
-15 -22 -28 -24 -5 -1 3 2 2 2 3 -0 1 1 -5 -1 0 -3 -2 1 1 2 2 3 1 1 0 0 -1 2 -2 -2 1 3 5 2 2 -4 -9 -10 -11 -11 -10 -11 -11
-37 -38 -36 -19 0 -1 2 2 2 2 0 -4 -0 -4 -7 -4 -4 -4 0 1 2 2 2 2 2 2 3 1 -0 3 1 3 5 5 5 5 4 -4 -10 -9 -10 -11 -11 -11 -12
-38 -38 -31 -16 -8 1 1 2 2 2 -1 -2 -3 -3 -5 -5 -3 -6 -5 -3 -4 -1 -2 -2 -4 -1 0 0 -0 2 4 4 4 4 5 4 4 -4 -5 -8 -10 -12 -12 -12 -12
-39 -20 -4 0 1 2 0 1 0 1 -3 1 -1 -4 -4 -3 -2 -5 -7 -4 1 2 1 -1 -1 -3 -3 -1 -1 2 3 4 4 3 3 2 4 -7 -10 -10 -12 -12 -12 -12 -13
-29 -1 1 2 1 1 2 1 1 -1 -1 -3 -4 -6 -3 -6 -5 -6 -4 -4 -1 -1 -1 0 -2 1 -2 -1 2 1 2 3 4 3 2 -3 -2 -9 -10 -11 -11 -12 -12 -13 -14
-16 -1 -1 0 0 -0 1 -4 -0 -0 -3 -5 -7 -4 -4 -8 -5 -9 -8 -4 -5 -6 -5 -2 -2 -6 -8 -1 2 3 4 1 3 3 4 -7 -10 -10 -11 -11 -12 -12 -13 -14 -15
-8 -0 -6 -6 -4 -1 0 -1 0 -9 -9 -8 -6 -7 -5 -5 -7 -9 -9 -9 -9 -13 -12 -4 -4 -7 -2 -1 -0 2 -1 2 3 3 4 -4 -8 -7 -11 -11 -12 -13 -14 -14 -15
-4 0 -11 -4 -3 0 -2 -3 -7 -12 -11 -7 -6 -5 -6 -6 -8 -9 -6 -8 -12 -14 -13 -9 -5 -5 -4 -2 -2 0 2 1 -0 1 0 -4 -7 -13 -12 -12 -13 -13 -14 -15 -16
-6 -2 -14 -13 -9 -6 -8 -9 -13 -13 -11 -9 -8 -8 -7 -8 -12 -9 -7 -10 -12 -14 -11 -11 -7 -5 -6 -8 -11 -12 -12 -10 0 1 -4 -4 -11 -11 -12 -13 -13 -14 -15 -16 -16
-3 -4 -12 -28 -10 -8 -12 -9 -16 -12 -11 -9 -8 -11 -10 -10 -9 -8 -10 -13 -13 -13 -9 -8 -11 -9 -8 -4 -14 -12 -14 -12 -10 -7 -3 -1 -13 -12 -12 -13 -14 -14 -15 -15 -16
-5 -7 -10 -14 -10 -12 -12 -12 -13 -14 -12 -11 -9 -12 -12 -14 -10 -13 -12 -12 -14 -14 -12 -11 -12 -12 -12 -14 -13 -15 -15 -14 -11 -8 -10 -11 -12 -13 -13 -14 -14 -15 -15 -16 -16
-6 -7 -11 -14 -11 -13 -15 -16 -13 -12 -14 -13 -15 -13 -12 -13 -14 -14 -12 -13 -14 -15 -15 -14 -13 -14 -13 -13 -14 -15 -15 -15 -14 -13 -11 -13 -13 -13 -14 -14 -15 -15 -16 -16 -17
-7 -5 -15 -11 -14 -15 -17 -19 -16 -14 -14 -14 -14 -13 -14 -13 -12 -11 -12 -15 -16 -15 -18 -15 -12 -14 -13 -12 -15 -16 -16 -17 -16 -15 -14 -15 -15 -14 -14 -15 -15 -15 -16 -16 -21
-15 -13 -26 -14 -15 -19 -19 -16 -15 -16 -17 -14 -15 -18 -17 -16 -12 -13 -13 -13 -14 -15 -19 -15 -13 -10 -9 -11 -11 -16 -14 -15 -15 -16 -15 -15 -15 -15 -16 -16 -16 -16 -16 -19 -20

GFSSW_850_dewp_375.txt.gz
Dewpoint
8 8 7 7 7 7 7 7 6 5 4 3 3 1 1 4 2 3 1 -0 1 1 1 4 -0 4 8 6 4 3 1 -2 -4 -5 -6 -8 -7 -8 -9 -10 -9 -10 -11 -11 -12
8 8 7 7 7 7 6 6 5 4 3 2 0 1 4 3 2 3 0 5 7 6 7 4 7 6 9 7 4 3 2 -3 -5 -6 -5 -7 -7 -7 -7 -8 -7 -6 -2 -2 0
8 8 8 8 7 6 6 5 4 3 3 1 -1 4 5 4 2 -1 3 3 1 0 6 6 6 6 7 6 4 3 2 -2 -3 -5 -6 -5 -6 -7 -6 -6 -7 -6 4 7 9
8 8 8 6 5 5 4 4 3 3 2 -2 -2 5 4 5 3 -1 -1 -1 0 1 3 6 7 6 6 6 4 5 0 0 -2 -3 -3 -5 -6 -5 -7 -6 -6 -6 5 8 9
8 8 6 5 5 4 4 2 2 0 -4 -7 -2 5 5 5 4 -2 1 2 2 5 7 6 5 2 3 3 3 4 2 0 -0 1 -2 -4 -5 -5 -6 -4 -4 -1 3 5 6
9 8 5 5 4 2 -1 -5 -8 -9 -11 -8 -1 5 5 5 2 2 3 2 3 2 4 7 7 4 3 2 2 1 1 1 0 -2 -2 -1 -2 -4 -5 -4 -2 -1 0 1 2
8 7 5 4 -2 -8 -10 -12 -13 -14 -12 -7 1 5 5 5 2 2 -3 -3 -2 2 2 1 6 4 -0 -2 -1 -3 1 0 -1 -2 -1 -4 -3 -3 -7 -5 -5 -4 -3 -2 -0
8 6 4 -4 -12 -17 -22 -24 -22 -10 -9 -0 2 6 4 4 3 -2 -2 -2 -2 -4 -2 2 3 5 4 3 2 2 -4 -1 -6 -3 -5 -4 -1 -7 -7 -6 -7 -6 -5 -4 -2
6 4 -5 -14 -23 -35 -37 -35 -15 -10 -0 2 -1 5 3 2 0 -2 -3 -2 -3 -4 -2 2 2 -0 -4 2 4 3 6 3 -1 -7 -6 -5 -3 -7 -7 -7 -8 -8 -7 -6 -4
3 -7 -17 -30 -38 -38 -29 -15 -9 -1 2 -4 2 1 -1 -2 -1 -2 -1 -2 -5 -5 -3 -6 -7 -6 -3 2 4 2 5 2 0 -5 -6 -5 -5 -8 -9 -9 -9 -9 -8 -7 -7
-14 -25 -37 -38 -38 -25 -8 -7 -0 -3 -3 0 -1 1 -1 -2 -2 -2 -2 -1 -1 -1 -5 -9 -7 -3 -2 -3 -0 0 1 3 2 -1 -1 1 -4 -8 -9 -9 -9 -9 -9 -9 -8
-36 -38 -38 -38 -35 -10 -0 2 2 2 2 0 -0 -0 -1 -0 1 -4 -1 -0 -3 -0 -5 -6 -3 -4 -6 -6 -6 -3 -1 -1 -3 -4 -2 0 -4 -7 -9 -10 -10 -10 -10 -10 -9
-37 -37 -36 -35 -23 -15 1 1 2 2 2 -0 -0 1 -9 -5 -0 -3 -9 0 1 -0 -2 0 -0 -3 -3 -3 -3 -4 -4 -3 -2 -4 -0 -3 -5 -7 -8 -9 -11 -11 -11 -10 -10
-35 -34 -33 -21 -12 -5 0 0 1 1 1 -2 1 -2 -11 -10 -2 -11 -15 -9 -4 1 -0 0 -0 1 2 3 2 3 -2 -3 -2 0 3 -0 3 -5 -8 -9 -10 -11 -11 -11 -12
-34 -33 -14 -7 -2 -0 -0 0 -0 1 -8 -5 -4 -5 -16 -7 -6 -8 -14 -12 -5 -8 -4 -6 -5 -1 -1 -1 -0 3 3 3 3 3 3 2 3 -7 -8 -9 -10 -11 -12 -13 -13
-33 -21 -7 -4 -2 -2 -0 0 1 -2 -10 -1 -4 -6 -16 -9 -6 -12 -11 -14 -12 -10 -8 -12 -12 -6 -4 -7 -9 -5 -1 -1 1 3 3 1 2 -5 -7 -8 -11 -12 -13 -14 -14
-31 -7 -3 -4 -8 -2 -1 2 -4 -7 -5 -3 -5 -11 -12 -9 -9 -11 -9 -11 -11 -10 -10 -12 -9 -9 -13 -13 -14 -11 -6 -2 3 3 1 1 3 -9 -10 -10 -12 -13 -14 -15 -15
-28 -6 -18 -13 -10 -5 -1 -5 -12 -3 -5 -8 -10 -11 -6 -9 -10 -11 -9 -8 -11 -13 -11 -9 -9 -10 -14 -13 -10 -9 -7 -1 0 2 2 -0 -5 -12 -12 -13 -13 -14 -15 -16 -16
-19 -8 -26 -6 -11 -4 -2 -4 -2 -5 -10 -11 -11 -6 -7 -9 -9 -11 -9 -9 -9 -13 -12 -12 -9 -15 -15 -13 -10 -4 -7 -6 -2 -4 -1 -8 -12 -11 -13 -13 -14 -15 -16 -17 -17
-11 -3 -19 -16 -3 -2 -5 -5 -6 -11 -10 -11 -8 -6 -6 -7 -10 -12 -8 -10 -10 -14 -13 -13 -11 -14 -14 -18 -17 -12 -14 -8 -2 -0 -1 -6 -10 -11 -13 -14 -15 -16 -16 -17 -17
-8 -3 -31 -7 -14 -18 -9 -8 -12 -14 -11 -9 -6 -8 -8 -8 -11 -10 -8 -9 -13 -14 -14 -12 -11 -13 -15 -14 -14 -16 -17 -17 -14 -9 -1 -5 -11 -11 -13 -14 -15 -16 -16 -17 -17
-7 -9 -34 -20 -17 -10 -11 -12 -15 -13 -12 -11 -9 -10 -9 -10 -14 -11 -7 -10 -14 -15 -12 -10 -11 -13 -11 -13 -14 -16 -15 -15 -16 -9 -8 -10 -16 -13 -14 -15 -16 -16 -17 -17 -17
-7 -16 -33 -33 -14 -12 -14 -17 -15 -12 -12 -12 -10 -14 -13 -11 -12 -10 -11 -14 -15 -15 -11 -13 -16 -16 -16 -17 -18 -17 -17 -17 -14 -14 -13 -11 -15 -14 -14 -15 -15 -16 -16 -17 -17
-17 -12 -24 -23 -17 -16 -14 -16 -16 -15 -13 -13 -14 -15 -15 -16 -13 -14 -13 -13 -15 -16 -15 -18 -21 -19 -15 -15 -15 -16 -16 -17 -15 -12 -15 -14 -15 -15 -15 -15 -16 -16 -16 -16 -17
-18 -11 -17 -15 -13 -17 -18 -18 -16 -14 -16 -15 -19 -14 -14 -17 -17 -16 -14 -15 -17 -15 -22 -18 -16 -16 -15 -15 -18 -17 -16 -17 -16 -15 -15 -15 -16 -15 -15 -15 -15 -16 -16 -16 -17
-16 -17 -18 -13 -18 -22 -20 -22 -17 -15 -15 -17 -16 -14 -18 -16 -15 -16 -17 -21 -19 -19 -24 -21 -15 -16 -15 -15 -14 -17 -17 -17 -17 -16 -16 -16 -16 -16 -16 -16 -16 -16 -16 -17 -17
-25 -27 -29 -20 -20 -20 -20 -19 -16 -17 -19 -16 -18 -18 -20 -19 -15 -15 -14 -15 -16 -18 -25 -22 -17 -15 -14 -14 -15 -18 -15 -16 -16 -17 -17 -17 -17 -17 -17 -16 -16 -16 -17 -17 -17

GFSSW_850_dewp_378.txt.gz
Dewpoint
8 7 7 7 7 6 5 5 4 4 4 4 3 2 1 0 -1 3 3 -1 3 6 7 5 6 5 7 9 6 2 1 -1 -3 -5 -7 -8 -8 -9 -10 -11 -11 -11 -13 -13 -11
7 7 8 7 6 5 5 4 4 4 3 3 4 6 5 4 1 -2 2 7 8 7 3 7 7 6 8 7 7 3 2 -3 -6 -6 -6 -7 -7 -8 -7 -8 -8 -8 -6 -8 -8
8 8 8 8 6 5 4 4 2 0 -2 -1 2 6 5 4 1 4 7 7 5 2 1 6 7 6 6 6 6 3 4 -3 -4 -5 -6 -6 -6 -7 -6 -5 -7 -6 1 3 2
9 8 8 8 6 5 3 -3 -7 -9 -11 -10 -6 5 4 4 0 1 7 3 1 3 5 6 6 5 6 5 5 6 2 1 0 -1 -2 -3 -5 -5 -6 -5 -5 -5 4 7 8
8 8 8 7 5 3 -5 -12 -15 -16 -16 -14 -8 4 4 5 4 -0 1 2 1 4 7 7 6 5 5 4 4 5 4 2 1 1 0 -2 -4 -5 -5 -5 -4 -2 4 6 7
8 8 7 5 3 -8 -19 -31 -36 -36 -29 -15 -5 4 4 5 2 2 3 -1 -3 -1 4 3 7 5 3 3 3 2 2 2 1 1 1 0 0 -3 -4 -4 -3 -0 1 2 3
8 7 5 -1 -15 -31 -38 -38 -37 -25 -12 -6 -1 4 5 4 3 3 -3 -3 -2 -2 -3 -1 1 5 3 3 3 2 2 -1 -2 -0 -0 -2 -0 1 -4 -4 -4 -3 -2 -1 0
6 4 -7 -21 -36 -38 -38 -35 -20 -15 -5 -0 1 5 4 4 2 2 -2 -3 -3 -3 -3 -3 -0 4 5 5 4 5 4 6 -3 -4 -2 -1 2 -6 -6 -5 -6 -6 -4 -3 -2
-1 -14 -30 -38 -38 -37 -33 -21 -14 -6 2 -1 1 4 2 0 -2 -2 -3 -2 -2 -5 -4 -3 3 5 -0 4 4 4 6 5 5 -1 -4 -2 1 -7 -7 -7 -7 -7 -6 -5 -4
-24 -37 -37 -37 -36 -32 -22 -18 -8 -1 -1 -3 1 -1 -2 -2 -2 -2 -1 -1 -0 -4 -2 -6 -7 -6 -3 3 3 2 3 3 4 -0 -3 -1 -2 -7 -8 -8 -8 -8 -7 -7 -6
-37 -36 -35 -34 -28 -14 -11 -12 -6 -6 -6 0 -0 1 -1 -3 -1 -4 -6 -1 -1 -1 -1 -5 -6 -2 -2 -1 0 1 1 2 -0 -2 0 2 -1 -5 -9 -9 -8 -8 -8 -8 -7
-35 -34 -34 -32 -21 -12 -4 -0 1 2 1 -0 -0 -2 -4 -6 1 -12 -12 -1 -1 -0 -3 -3 -2 -3 -4 -3 -3 -2 -1 -2 -4 -5 -3 1 -2 -6 -6 -9 -9 -9 -9 -9 -9
-34 -33 -32 -22 -17 -6 -1 1 1 1 2 -1 -1 1 -14 -12 -6 -12 -17 -13 -3 -0 -1 1 -1 -4 -4 -3 -1 -0 1 -1 -3 -5 -1 -2 -4 -7 -7 -9 -9 -10 -10 -11 -11
-33 -32 -29 -15 -10 -6 -1 -0 1 1 0 -3 -0 -3 -15 -15 -7 -12 -15 -11 -12 -5 -8 -2 -7 -7 -6 -5 -4 -1 -2 1 2 2 1 -1 1 -5 -8 -8 -10 -11 -12 -13 -13
-32 -31 -13 -7 -7 -5 -3 -1 1 2 -8 -5 -3 -6 -15 -11 -10 -11 -14 -16 -10 -13 -9 -9 -10 -11 -5 -4 -14 -2 -8 -4 -4 1 2 1 3 -8 -8 -9 -11 -12 -13 -14 -14
-31 -25 -10 -16 -14 -10 -3 -1 1 -5 -12 -2 -6 -9 -13 -10 -10 -12 -13 -16 -16 -13 -15 -15 -15 -9 -5 -15 -14 -12 -9 -8 -6 -1 1 1 2 -9 -8 -9 -13 -14 -15 -15 -15
-29 -19 -17 -27 -9 -12 -4 -0 -6 -7 -7 -5 -8 -13 -11 -10 -12 -11 -10 -12 -12 -12 -11 -14 -14 -13 -16 -11 -12 -10 -8 -8 -6 0 -2 -1 1 -12 -12 -12 -13 -15 -16 -16 -16
-26 -11 -16 -26 -8 -7 -2 -6 -15 -5 -6 -10 -13 -12 -7 -11 -11 -11 -10 -10 -11 -13 -12 -11 -10 -14 -15 -15 -12 -10 -5 -7 -3 -3 -2 -8 -10 -13 -14 -15 -15 -16 -17 -17 -17
-22 -8 -16 -20 -5 -5 -5 -7 -3 -6 -11 -12 -10 -7 -7 -10 -11 -11 -9 -10 -9 -13 -13 -13 -11 -16 -18 -18 -16 -12 -9 -12 -6 -8 -7 -13 -13 -12 -14 -15 -15 -16 -17 -17 -17
-17 -5 -27 -18 -14 -17 -7 -6 -7 -12 -11 -10 -8 -8 -7 -8 -11 -12 -9 -10 -11 -15 -13 -13 -13 -15 -17 -20 -20 -17 -17 -14 -10 -8 -7 -10 -12 -12 -14 -15 -16 -16 -17 -18 -17
-13 -7 -33 -26 -29 -24 -10 -9 -13 -14 -11 -9 -7 -9 -9 -8 -12 -11 -9 -10 -17 -15 -14 -12 -12 -14 -17 -15 -14 -17 -18 -17 -19 -14 -6 -6 -13 -13 -14 -15 -16 -17 -17 -18 -18
-13 -12 -33 -32 -18 -13 -11 -15 -15 -13 -13 -13 -11 -11 -10 -11 -15 -12 -9 -11 -17 -17 -13 -11 -14 -13 -13 -18 -18 -17 -16 -18 -20 -15 -12 -11 -17 -14 -15 -16 -16 -16 -17 -17 -17
-14 -25 -32 -32 -13 -13 -14 -19 -16 -13 -14 -13 -13 -14 -14 -12 -14 -10 -12 -14 -15 -16 -11 -14 -18 -15 -16 -21 -20 -19 -17 -16 -15 -16 -18 -14 -16 -15 -15 -16 -16 -16 -17 -17 -17
-23 -13 -25 -26 -19 -17 -16 -16 -17 -16 -15 -14 -15 -16 -16 -16 -15 -15 -14 -13 -16 -16 -17 -17 -22 -18 -15 -15 -17 -17 -17 -17 -15 -16 -16 -16 -16 -15 -15 -16 -16 -16 -16 -17 -17
-25 -12 -18 -15 -14 -19 -19 -18 -16 -15 -16 -16 -19 -14 -16 -18 -18 -17 -15 -16 -18 -16 -23 -18 -16 -16 -16 -16 -18 -17 -17 -17 -17 -16 -17 -16 -17 -17 -16 -16 -16 -16 -16 -17 -17
-17 -20 -22 -15 -20 -23 -21 -23 -17 -16 -16 -17 -16 -15 -19 -17 -16 -18 -18 -21 -20 -20 -24 -21 -16 -17 -16 -15 -15 -17 -17 -18 -18 -17 -16 -16 -16 -17 -16 -16 -16 -16 -16 -17 -17
-27 -28 -28 -21 -20 -20 -21 -20 -18 -18 -20 -16 -18 -19 -21 -19 -16 -15 -15 -16 -17 -20 -25 -23 -20 -16 -14 -16 -18 -18 -15 -16 -17 -17 -17 -17 -17 -17 -17 -17 -17 -17 -17 -17 -17

GFSSW_850_dewp_384.txt.gz
Dewpoint
9 9 9 9 8 8 7 5 3 -2 -7 -11 -9 -4 -0 -6 -9 4 4 3 2 5 7 7 7 7 7 7 7 6 5 4 1 -2 -4 -9 -9 -10 -10 -10 -10 -10 -11 -8 -12
9 8 8 8 7 6 4 -1 -11 -25 -21 -3 4 4 4 3 -1 3 2 7 6 6 5 7 6 6 6 6 6 6 7 5 1 -2 -4 -6 -7 -8 -8 -9 -9 -9 -9 -11 -8
8 7 7 6 5 2 -8 -23 -35 -35 -22 -7 3 4 3 2 4 2 7 6 4 3 2 3 5 6 6 5 5 5 7 4 3 -2 -3 -4 -5 -5 -6 -6 -7 -7 -0 -2 -5
5 5 3 -1 -10 -24 -35 -36 -36 -35 -26 -9 -1 3 3 4 -2 6 6 5 3 1 -0 6 6 6 6 5 4 7 4 4 5 4 -1 -0 -0 -0 -3 -4 -4 -5 -5 -0 1
4 -1 -9 -22 -35 -36 -35 -35 -34 -32 -25 -15 -3 3 3 4 3 4 5 3 3 -2 3 6 5 5 4 3 2 4 4 3 4 4 4 3 3 2 1 -1 -3 -4 -2 2 3
-5 -19 -34 -35 -34 -34 -33 -31 -29 -24 -21 -11 -0 4 3 3 1 2 4 4 2 -2 -1 1 5 5 5 5 5 4 4 4 4 4 4 4 3 3 2 -2 -3 -2 -0 2 3
-33 -34 -33 -33 -32 -31 -30 -27 -21 -19 -12 -2 4 4 4 2 3 3 2 1 -3 -2 -1 -1 -0 0 1 1 2 3 5 3 2 2 4 3 4 4 1 -2 -3 -3 -3 -0 0
-34 -32 -31 -31 -31 -30 -26 -19 -20 -14 -2 -4 -2 4 3 4 -1 -3 -3 -4 -6 -3 -5 -3 -2 -0 -0 -1 1 1 1 4 -2 -1 0 2 6 -3 -3 -3 -4 -4 -4 -3 -2
-31 -31 -31 -31 -30 -27 -21 -22 -18 -9 -3 -5 3 5 1 -3 -2 -8 -11 -11 -2 -7 -5 -3 2 1 0 2 2 1 1 -1 -3 -4 -1 -0 1 -5 -6 -5 -5 -5 -5 -5 -4
-30 -30 -30 -29 -25 -20 -18 -21 -12 -5 -6 -1 -3 -2 -5 -6 -1 -8 -10 -11 -5 -4 -6 -7 -6 -5 -4 -1 -0 -5 -4 -4 -4 -6 -3 -2 -1 -0 -5 -4 -5 -5 -6 -6 -7
-29 -29 -29 -27 -19 -10 -13 -18 -7 -5 -7 -1 -1 0 -2 -7 -2 -13 -19 -10 -10 -13 -10 -11 -12 -13 -8 -6 -3 -2 -2 -2 -4 -6 -4 -3 -3 -3 -7 -7 -7 -6 -6 -7 -9
-28 -28 -27 -22 -16 -11 -9 -1 -0 -0 0 -1 -1 -2 -9 -7 -10 -14 -23 -19 -16 -19 -15 -18 -16 -12 -13 -11 -9 -7 -5 -6 -8 -8 -6 -0 -0 -7 -8 -10 -11 -11 -11 -12 -11
-27 -27 -26 -20 -17 -15 -10 -7 -1 0 0 -2 -0 -11 -14 -9 -11 -14 -17 -15 -14 -20 -15 -15 -15 -12 -10 -11 -11 -10 -9 -8 -7 -9 -8 -1 -0 -6 -10 -12 -13 -13 -13 -13 -13
-27 -27 -24 -16 -17 -16 -8 -8 -2 -0 -1 -2 -3 -16 -12 -8 -11 -14 -17 -14 -16 -15 -12 -11 -16 -13 -10 -12 -15 -9 -11 -11 -9 -9 -5 -5 -3 -7 -9 -11 -14 -14 -15 -15 -15
-26 -26 -13 -14 -25 -12 -8 -5 0 -1 -2 -5 -9 -16 -12 -15 -15 -13 -17 -16 -16 -13 -17 -15 -13 -14 -13 -16 -16 -10 -15 -11 -9 -7 -7 -7 -3 -10 -14 -14 -14 -15 -15 -16 -16
-26 -21 -18 -29 -21 -10 -7 -3 -0 -3 -4 -8 -13 -16 -13 -15 -15 -14 -17 -18 -18 -16 -18 -16 -17 -18 -18 -19 -18 -17 -11 -9 -7 -6 -5 -9 -7 -12 -15 -15 -16 -16 -16 -16 -16
-25 -14 -29 -31 -19 -21 -17 -4 -3 -3 -11 -10 -16 -13 -11 -15 -14 -15 -14 -15 -14 -12 -14 -18 -17 -18 -20 -18 -19 -15 -10 -7 -4 -3 -8 -9 -10 -14 -15 -16 -16 -16 -16 -16 -17
-24 -13 -30 -30 -28 -27 -11 -9 -5 -9 -12 -17 -13 -12 -10 -15 -14 -14 -15 -13 -17 -16 -14 -13 -12 -18 -20 -19 -17 -15 -11 -8 -6 -7 -4 -13 -13 -14 -15 -16 -16 -16 -16 -17 -17
-22 -21 -29 -29 -30 -25 -11 -4 -7 -11 -13 -10 -12 -12 -13 -15 -13 -13 -14 -15 -17 -18 -13 -11 -11 -19 -22 -21 -19 -16 -13 -17 -12 -11 -8 -12 -14 -13 -15 -16 -16 -16 -16 -17 -17
-20 -9 -28 -29 -29 -29 -9 -9 -11 -13 -15 -13 -10 -11 -10 -12 -12 -11 -12 -15 -16 -19 -16 -13 -12 -18 -22 -22 -21 -18 -19 -12 -12 -9 -7 -13 -14 -15 -16 -16 -16 -17 -17 -17 -17
-21 -23 -27 -29 -29 -20 -8 -13 -16 -15 -15 -13 -12 -11 -12 -11 -11 -12 -14 -14 -18 -18 -16 -13 -12 -15 -22 -17 -16 -17 -17 -18 -17 -14 -10 -11 -15 -16 -16 -15 -16 -16 -16 -16 -17
-28 -23 -27 -28 -17 -11 -14 -16 -17 -18 -16 -16 -15 -13 -12 -12 -13 -14 -13 -14 -20 -16 -13 -12 -13 -13 -17 -19 -19 -18 -16 -17 -15 -15 -15 -14 -16 -16 -15 -16 -16 -16 -16 -16 -16
-28 -22 -27 -27 -10 -14 -22 -20 -18 -18 -17 -17 -14 -14 -14 -13 -14 -16 -18 -18 -20 -15 -12 -14 -14 -13 -14 -19 -20 -17 -17 -17 -17 -16 -16 -15 -16 -17 -16 -16 -16 -16 -16 -16 -16
-26 -10 -21 -24 -20 -16 -17 -18 -18 -18 -18 -16 -15 -16 -14 -14 -16 -15 -15 -18 -18 -16 -14 -17 -17 -17 -16 -16 -18 -17 -17 -17 -18 -16 -16 -16 -16 -17 -17 -16 -17 -16 -16 -16 -16
-24 -14 -20 -13 -19 -18 -19 -18 -17 -16 -17 -16 -16 -15 -15 -14 -15 -14 -16 -18 -19 -19 -20 -17 -15 -16 -17 -18 -18 -16 -16 -16 -16 -16 -16 -16 -16 -16 -16 -16 -17 -16 -16 -16 -16
-24 -16 -23 -16 -19 -17 -17 -17 -17 -18 -15 -16 -15 -16 -16 -15 -15 -15 -16 -16 -18 -20 -20 -19 -15 -16 -16 -16 -16 -17 -17 -18 -18 -18 -18 -18 -17 -17 -16 -16 -16 -16 -16 -16 -16
-25 -24 -21 -17 -16 -15 -18 -19 -19 -19 -19 -18 -17 -16 -17 -16 -17 -16 -16 -19 -22 -20 -19 -17 -15 -15 -14 -17 -16 -18 -15 -16 -17 -17 -17 -17 -16 -17 -17 -17 -16 -16 -16 -16 -16